Weather History for KLAF - October, 2010

Change the Weather History Date:

Saturday, October 23, 2010

  Actual Average Record
Temperature  
Mean Temperature 65 °F 52 °F  
Max Temperature 77 °F 62 °F 77 °F (1992)
Min Temperature 52 °F 42 °F 23 °F (1969)
Degree Days  
Heating Degree Days 0 13  
Month to date heating degree days 196 231  
Since 1 July heating degree days 242 316  
Cooling Degree Days 0 0  
Month to date cooling degree days 9 13  
Year to date cooling degree days 1334 978  
Growing Degree Days 16 (Base 50)    
Moisture  
Dew Point 36 °F    
Average Humidity 33    
Maximum Humidity 41    
Minimum Humidity 24    
Precipitation  
Precipitation T in 0.09 in 2.10 in (1951)
Month to date precipitation 0.54 2.15  
Year to date precipitation 30.83 30.36  
Sea Level Pressure  
Sea Level Pressure 30.03 in    
Wind  
Wind Speed 5 mph (SSW)    
Max Wind Speed 16 mph    
Max Gust Speed 24 mph    
Visibility 10 miles    
Events Rain    
T = Trace of Precipitation, MM = Missing Value Source: NWS Daily Summary

Daily Weather History Graph

Daily Weather History Graph

Search for Another Location

Airport or City:

Trip Planner

Search our weather history database for the weather conditions in past years. The results will help you decide how hot, cold, wet, or windy it might be!

Date:

Astronomy

Oct. 23, 2010 Rise Set
Actual Time 8:07 AM EDT 6:56 PM EDT
Civil Twilight 7:39 AM EDT 7:23 PM EDT
Nautical Twilight 7:07 AM EDT 7:55 PM EDT
Astronomical Twilight 6:36 AM EDT 8:27 PM EDT
Moon 6:58 PM EDT (10/23) 8:47 AM EDT (10/23)
Length of Visible Light 11h 44m
Length of Day
10h 48m
Full, 100% of the Moon is Illuminated
Oct 23
Full
Oct 30
Last Quarter
Nov 6
New
Nov 13
First Quarter
Nov 21
Full

Hourly Weather History & Observations

Time (EDT) Temp. Dew Point Humidity Pressure Visibility Wind Dir Wind Speed Gust Speed Precip Events Conditions
12:54 AM 55.9 °F 30.9 °F 39% 30.08 in 10.0 mi Calm Calm - N/A   Scattered Clouds
1:54 AM 55.9 °F 30.9 °F 39% 30.07 in 10.0 mi Calm Calm - N/A   Partly Cloudy
2:54 AM 55.0 °F 32.0 °F 42% 30.08 in 10.0 mi SW 3.5 mph - N/A   Scattered Clouds
3:54 AM 57.9 °F 33.1 °F 39% 30.08 in 10.0 mi Calm Calm - N/A   Partly Cloudy
4:54 AM 60.1 °F 33.1 °F 36% 30.07 in 10.0 mi SW 3.5 mph - N/A   Mostly Cloudy
5:54 AM 59.0 °F 33.1 °F 38% 30.06 in 10.0 mi WSW 3.5 mph - N/A   Clear
6:54 AM 60.1 °F 35.1 °F 39% 30.06 in 10.0 mi SSW 6.9 mph - 0.00 in Rain Light Rain
7:54 AM 59.0 °F 37.0 °F 44% 30.06 in 10.0 mi Calm Calm - 0.00 in   Clear
8:54 AM 62.1 °F 35.1 °F 37% 30.07 in 10.0 mi SSW 6.9 mph - N/A   Mostly Cloudy
9:54 AM 64.0 °F 36.0 °F 35% 30.09 in 10.0 mi SW 5.8 mph - N/A   Mostly Cloudy
10:54 AM 64.0 °F 37.0 °F 37% 30.09 in 10.0 mi SW 4.6 mph - 0.00 in   Mostly Cloudy
11:54 AM 66.0 °F 37.0 °F 34% 30.09 in 10.0 mi SW 5.8 mph - N/A   Scattered Clouds
12:54 PM 66.9 °F 39.0 °F 36% 30.08 in 10.0 mi Calm Calm - N/A   Partly Cloudy
1:54 PM 69.1 °F 39.9 °F 35% 30.05 in 10.0 mi SSE 3.5 mph - N/A   Clear
2:54 PM 73.0 °F 39.0 °F 29% 30.02 in 10.0 mi ESE 5.8 mph - N/A   Clear
3:54 PM 75.9 °F 37.9 °F 25% 29.99 in 10.0 mi SW 8.1 mph - N/A   Clear
4:54 PM 75.9 °F 37.9 °F 25% 29.96 in 10.0 mi SSW 12.7 mph 18.4 mph N/A   Clear
5:54 PM 77.0 °F 37.0 °F 24% 29.95 in 10.0 mi SSW 11.5 mph 23.0 mph N/A   Clear
6:54 PM 73.9 °F 37.0 °F 26% 29.95 in 10.0 mi SSW 9.2 mph 17.3 mph N/A   Clear
7:54 PM 71.1 °F 37.0 °F 29% 29.96 in 10.0 mi South 6.9 mph - N/A   Clear
8:54 PM 69.1 °F 37.9 °F 32% 29.96 in 10.0 mi South 8.1 mph - N/A   Clear
9:54 PM 69.1 °F 37.0 °F 31% 29.96 in 10.0 mi South 6.9 mph - N/A   Clear
10:54 PM 68.0 °F 37.0 °F 32% 29.96 in 10.0 mi South 4.6 mph - N/A   Clear
11:54 PM 66.9 °F 37.0 °F 33% 29.96 in 10.0 mi SSW 6.9 mph - N/A   Clear